NapervilleWeather.com

Find the Weather for any City, State  
or Zipcode, or Country:

Naperville, IL Weather
Local Radar

Local Radar

Graphs, Details
Graphs and Gauges
Detailed Weather
Detailed Reports
Ajax Version (old)
Davis Summary
Davis Current Weather Graphs
Davis 24 Hour Weather History
Cumulus

CW7164 Data

Weather Underground
www.awekas.at
Automatic Weather Map System
Latest Naperville, Illinois, weather
Weather For You
Maps
Temperature
Heat Index
Windchill
Humidity
Radar
Dew Point
Wind
Visibility
Visible Satellite
Satellite
Fronts
Snow Depth
Jet Stream
Flight Rules
Forecast Maps
Temperature Forecast
Maximum Temperature Forecast
Minimum Temperature Forecast
Dewpoint Forecast
Prevalent Weather
12Hr Probability of Precip.
Sky Cover
Health Maps
UV Forecast
Air Quality
Peak Air Quality Index
Weather Station
Davis Instruments Vantage Pro2
Current Conditions [Select Refresh to Update]

Updated: 2:47am on 8/1/15

(location)
Currently:
63.1°F

Clear
Clear

High: 67.9 °F< 
(12:00am
Low: 63.1 °F 
(2:37am)
Wind: WNW 0 mph
Calm
Gust: 0 mph
Today's High Wind: 0 mph (12:00am)
Humidity: 74%
Pressure: 29.98 in  (Steady
Pressure Rate: -0.004 in/hr
Dew Point: 54.7°F
Wind Chill: 63.1 °F
Heat Index (feels like): 66.5 °F
Comfort Level: Comfortable
Temperature Rate:  -1.27°F/hr
 
5 Day Forecast
 
Sat Sun Mon Tue Wed
Clear Clear Clear Clear Clear
Chance T-storms Chance T-storms Mostly Cloudy Chance Rain Chance T-storms
86 86 83 80 77
66 66 62 62 60

Records and Normals
 
Temperature Forecast Normal Record
High 86 84 96
(2006)
Low 66 62 51
(1998)
 
 
Weather Advisories
No Warnings
Full Advisory Text...
Weather Map

Web Cam

Almanac
 
Sunrise:  
5:48am
Moonrise: 
8:54pm

Moon Phase:
99%

Sunset: 
8:12pm
Moonset:  
7:13am
 Star Chart...
Rainfall Totals
Hourly Rain 0.00 in
Daily Rain: 0.00 in
Monthly Rain: 0.00 in
Yearly Rain: 19.65 in
Normal Rain, month to date: 3.26 in
Normal Rain, year to date: 22.26 in
Local Weather Exchange Network
Station ID City 
(Click for Map Location)
Neighborhood 
(Click for History)
Last Update (Date & Time) Temperature
 ()
Dew
Point ()
Humidity 
(%)
Wind 
(mph)
from the Wind Gust 
(mph) 
Pressure(in) Hourly
Rain(in)
KILWARRE5 Warrenville Briergate Drive 08/01 02:36:37 67.1 55.0 65 0 North 0 30.04 0.00
KILNAPER15 Naperville Indian Hill Near Jefferson JHS 08/01 02:39:58 62.5 55.0 76 0 NNW 0 29.94 0.00
KILNAPER33 Naperville Downtown 08/01 02:36:47 64.4 49.0 56 0 North 0 29.94 0.00
KILNAPER28 Naperville Pawnee Lane 08/01 02:36:23 65.3 55.0 69 0 North 0 30.06 0.00
KILNAPER25 Naperville brushhill-w 08/01 02:33:09 65.0 55.0 71 0 West 0 29.94 0.00
KILNAPER24 Naperville Brush Hill 08/01 02:37:56 64.9 55.0 71 0 North 0 29.90 0.00
KILNAPER19 Naperville Brookdale Lakes 08/01 02:40:01 66.1 56.0 71 0 NW 1 29.95 0.00
KILNAPER7 Naperville NapervilleWeather.com Near Ogden and Naper Blvd 08/01 02:40:03 63.1 55.0 74 0 WNW 0 29.98 0.00
KILWARRE2 Warrenville Warrenville Neighborhood Weather 08/01 02:37:53 58.6 56.0 92 0 NW 0 29.93 0.00
KILNAPER42 Naperville Savannah Circle 08/01 02:36:56 67.6 55.0 64 0 North 0 30.06 0.00
KILNAPER60 Naperville Longwood 08/01 02:40:01 64.8 56.0 72 0 SW 0 29.98 0.00
KILNAPER31 Naperville Savannah Circle 08/01 02:36:23 63.7 54.0 69 0 North 0 29.83 0.00
KILNAPER38 Naperville East Highlands 08/01 02:40:04 61.7 59.0 92 0 WSW 0 30.17 0.00
KILNAPER23 Naperville Naper Blvd at BNSF RR 08/01 02:40:01 57.6 55.0 91 0 NNW 0 29.97 0.00
KILNAPER27 Naperville River Rd and Rickert 08/01 02:40:00 59.7 50.0 70 0 ESE 0 31.02 0.00
KILLISLE10 Lisle Maple Avenue 08/01 02:36:32 64.9 54.0 66 0 North 0 30.05 0.00
KILNAPER46 Naperville Hilton Head Drive 08/01 02:37:04 64.2 50.0 60 0 North 0 30.04 0.00
KILLISLE9 Lisle Park Meadow Drive 08/01 02:36:17 69.8 55.0 59 0 North 0 30.01 0.00
KILWARRE6 Warrenville Summer Lakes 08/01 02:26:31 58.8 55.0 87 0 NW 0 29.96 0.00
KILNAPER9 Naperville 75th St. / Modaff Area 08/01 02:39:41 57.1 54.0 89 0 East 0 29.95 0.00
KILLISLE7 Lisle Beau Monde Drive 08/01 02:36:27 66.4 54.0 64 0 North 0 30.06 0.00
KILWHEAT8 Wheaton Wheaton Sanitary District 08/01 02:34:14 63.2 58.0 83 0 WSW 0 29.96 0.00
KILWHEAT15 Wheaton Schubert Court 08/01 02:37:01 63.5 50.0 60 0 North 0 29.93 0.00
KILWHEAT11 Wheaton Wheaton SW Orth Ct 08/01 02:39:41 65.2 54.0 66 0 NNW 0 30.10 0.00
KILLOMBA6 Wheaton Danada West 08/01 02:39:46 62.2 53.0 72 0 WNW 0 30.01 0.00
KILLISLE13 Lisle Oakwood Drive 08/01 02:36:25 68.2 54.0 59 0 North 0 29.93 0.00
KILAUROR31 Aurora Downing Court 08/01 02:37:06 65.5 56.0 71 0 North 0 30.07 0.00
KILAUROR27 Aurora Stonehaven 08/01 02:37:37 61.3 54.0 76 0 West 0 29.81 0.00
KILNAPER35 Naperville Nutmeg Lane 08/01 02:36:34 63.5 55.0 73 0 North 0 30.06 0.00
KILNAPER59 Naperville Naperville/Ranchview 08/01 02:31:36 62.1 55.0 77 0 NNE 0 29.93 0.00
KILNAPER61 Naperville Modaff Road 08/01 02:36:48 64.8 55.0 71 0 North 0 30.08 0.00
KILNAPER16 Naperville SE Naperville / NE Clow Arpt 08/01 02:39:59 58.5 54.0 85 0 North 0 29.98 0.00
KILAUROR35 Aurora Oakhurst 08/01 02:39:47 63.1 56.0 78 0 East 0 30.80 0.00
KILNAPER22 Naperville Willow Ridge 08/01 02:31:13 61.2 55.0 80 0 SSW 0 29.80 0.00
KILNAPER49 Naperville Sutton Circle 08/01 02:36:28 68.7 52.0 55 0 North 0 30.02 0.00
KILWHEAT5 Wheaton N9ABF - West Wheaton 08/01 02:20:24 62.9 53.0 71 0 NW 0 29.97 0.00
KDPA Chicago DuPage Official Station 08/01 01:52:00 63.0 53.0 70 7 West --- 29.99 ---
KLOT Romeoville Official Station 08/01 02:35:00 61.0 54.0 77 5 NW --- 30.00 ---
KARR Aurora Official Station 08/01 01:52:00 58.0 54.0 87 4 West --- 30.01 ---
KJOT Joliet Official Station 08/01 02:35:00 62.0 57.0 84 0 North --- 30.00 ---
Full Advisory Text
No Warnings

Ambient Weather and Weather Underground
 Never base important decisions on this or any weather information obtained from the Internet
Updated Automatically by Ambient Weather's Virtual Weather Station  V14.01